Location: Paddlesworth
(51.1000°N, 1.1333°E)
Time: 01:44:27
(UTC+00:00)

Okean 1 - Pass Details

Date: 26 September 2021
Orbit: 538 x 553 km, 82.5° (Epoch: 17 October)

Event Time Altitude Azimuth Distance (km) Brightness Sun altitude
Rises 04:49:03 0° 187° (S) 2,683 6.6 -10.1°
Reaches altitude 10° 04:51:11 10° 187° (S) 1,797 5.8 -9.7°
Maximum altitude 04:55:08 86° 101° (ESE) 549 3.3 -9.1°
Drops below altitude 10° 04:59:08 10° 11° (N) 1,816 6.2 -8.5°
Sets 05:01:18 0° 11° (NNE) 2,716 7.1 -8.2°
